User: anonymous   Login
Location: Oshawa
(43.9000°N, 78.8670°W)
Time: 15:17:07
(UTC-04:00)
Language:

SPOT 5 - Orbit

View from above orbital plane
View from above orbital plane
View from above satellite
View from above satellite

Ground track
Ground track

The orbit data is extracted from the following two-line orbital elements,

1 27421U 02021A   17177.93106335 +.00000052 +00000-0 +23662-4 0  9994
2 27421 098.4047 241.2360 0134368 299.0938 059.6849 14.51866396787083
Epoch (UTC): 26 June 2017 22:20:43
Eccentricity: 0.0134368
inclination: 98.4047°
perigee height: 624 km
apogee height: 815 km
right ascension of ascending node: 241.2360°
argument of perigee: 299.0938°
revolutions per day: 14.51866396
mean anomaly at epoch: 59.6849°
orbit number at epoch: 78708

The dashed part of the orbit path shows where the satellite is in the earth's shadow,  

DLR